FW8671 Weather Reports


time (UTC)temp
F
wind
direction
speed
knots
gust
knots
rain 1hr
in
rain 24hr
in
rain mn
in
humidity
%
barometer
mb
20260506103344 57 231 7.0 18.2 0.00 0.00 0.00 91 1013.2
20260506102331 57 233 7.0 18.2 0.00 0.00 0.00 92 1013.2
20260506101351 57 219 6.1 16.5 0.00 0.00 0.00 92 1013.1
20260506100410 57 216 7.8 16.5 0.00 0.00 0.00 91 1013.2
20260506095411 57 264 7.0 13.9 0.00 0.00 0.00 91 1013.2
20260506094433 57 232 7.0 13.9 0.00 0.00 0.00 91 1013.3
20260506093410 57 224 6.1 15.6 0.00 0.00 0.00 92 1013.1
20260506092350 57 199 6.1 15.6 0.00 0.00 0.00 91 1013.2
20260506091355 57 225 6.1 13.9 0.00 0.00 0.00 91 1013.3
20260506090402 57 256 6.1 19.1 0.00 0.00 0.00 91 1013.5
20260506085358 57 340 6.1 19.1 0.00 0.00 0.00 91 1013.4
20260506084352 57 260 7.0 15.6 0.00 0.00 0.00 91 1013.6
20260506083342 57 207 7.8 16.5 0.00 0.00 0.00 91 1013.5
20260506072939 57 236 8.7 17.4 0.00 0.00 0.00 89 1013.8
20260506071939 57 225 7.8 20.0 0.00 0.00 0.00 89 1013.9
20260506070927 58 221 9.6 20.0 0.00 0.00 0.00 89 1013.9
20260506062026 58 201 8.7 20.0 0.00 0.00 0.00 87 1013.7
20260506060955 58 244 8.7 19.1 0.00 0.00 0.00 87 1013.8
20260506050719 59 234 7.8 17.4 0.00 0.00 0.00 86 1014.0
20260506044706 59 255 10.4 22.6 0.00 0.00 0.00 86 1013.9
20260506042527 59 227 8.7 20.9 0.00 0.00 0.00 86 1014.0
20260506041535 59 229 7.8 20.0 0.00 0.00 0.00 85 1013.9
20260506035340 58 245 7.8 20.0 0.00 0.00 0.00 85 1014.1
20260506034340 58 232 7.8 21.7 0.00 0.00 0.00 86 1014.2
20260506033319 58 228 7.0 21.7 0.00 0.00 0.00 85 1014.1
20260506032258 58 279 8.7 20.9 0.00 0.00 0.00 85 1014.1
20260506031244 58 245 8.7 20.9 0.00 0.00 0.00 85 1014.1
20260506030227 58 215 8.7 19.1 0.00 0.00 0.00 85 1014.2
20260506025209 59 215 7.8 18.2 0.00 0.00 0.00 85 1014.1
20260506024146 59 207 7.8 17.4 0.00 0.00 0.00 85 1014.1
20260506023114 59 263 7.0 16.5 0.00 0.00 0.00 85 1014.2
20260506022055 59 217 7.8 15.6 0.00 0.00 0.00 85 1014.3
20260506021024 59 0 8.7 20.0 0.00 0.00 0.00 84 1014.2
20260506014945 59 236 8.7 20.0 0.00 0.00 0.00 84 1013.9
20260506013939 59 213 7.8 16.5 0.00 0.00 0.00 84 1013.9
20260506010658 60 234 10.4 22.6 0.00 0.00 0.00 82 1013.4
20260506005630 60 217 10.4 21.7 0.00 0.00 0.00 82 1013.5
20260506004644 60 215 10.4 24.3 0.00 0.00 0.00 81 1013.4
20260506002520 60 227 10.4 22.6 0.00 0.00 0.00 81 1013.1
20260506001512 60 340 12.2 26.1 0.00 0.00 0.00 81 1013.1
20260506000502 60 339 10.4 26.1 0.00 0.00 0.00 81 1012.9
20260505235521 60 236 10.4 23.5 0.00 0.00 0.00 82 1012.9
20260505234502 60 209 10.4 25.2 0.00 0.00 0.00 81 1012.5
20260505233436 60 178 11.3 25.2 0.00 0.00 0.00 81 1012.3
20260505230250 60 242 9.6 26.1 0.00 0.00 0.00 81 1012.1
20260505225240 60 203 10.4 26.1 0.00 0.00 0.00 81 1011.9
20260505223114 61 204 10.4 24.3 0.00 0.00 0.00 80 1011.9
20260505222134 61 248 11.3 24.3 0.00 0.00 0.00 80 1011.9
20260505221114 61 209 10.4 24.3 0.00 0.00 0.00 79 1011.7
20260505220104 61 208 10.4 21.7 0.00 0.00 0.00 79 1011.8
20260505215032 61 230 11.3 25.2 0.00 0.00 0.00 79 1011.7
20260505212900 62 182 12.2 26.1 0.00 0.00 0.00 79 1011.4
20260505211907 62 198 12.2 26.1 0.00 0.00 0.00 78 1011.4
20260505210856 62 238 11.3 23.5 0.00 0.00 0.00 79 1011.3
20260505204729 62 218 10.4 23.5 0.00 0.00 0.00 78 1011.3
20260505203736 62 200 10.4 20.9 0.00 0.00 0.00 78 1011.2
20260505202702 62 103 8.7 19.1 0.00 0.00 0.00 77 1011.3
20260505201718 63 238 6.1 16.5 0.00 0.00 0.00 77 1011.4
20260505200736 62 258 7.0 16.5 0.00 0.00 0.00 79 1011.5
20260505195743 62 227 6.1 16.5 0.00 0.00 0.00 79 1011.9
20260505194725 61 183 7.8 16.5 0.00 0.00 0.00 80 1012.0
20260505193712 61 225 7.8 16.5 0.00 0.00 0.00 80 1012.1
20260505190424 62 235 8.7 17.4 0.00 0.00 0.00 80 1012.6
20260505185358 62 200 7.8 18.2 0.00 0.00 0.00 80 1012.8
20260505184328 61 224 7.8 18.2 0.00 0.00 0.00 82 1013.0
20260505182124 60 212 7.8 17.4 0.00 0.00 0.00 82 1013.2
20260505181052 61 219 7.0 17.4 0.00 0.00 0.00 81 1013.2
20260505173758 60 214 7.0 15.6 0.00 0.00 0.00 82 1013.3
20260505172801 60 215 7.8 20.0 0.00 0.00 0.00 83 1013.4
20260505171806 60 156 7.8 20.0 0.00 0.00 0.00 83 1013.5
20260505170808 59 209 8.7 14.8 0.00 0.00 0.00 83 1013.6
20260505165808 60 230 7.8 14.8 0.00 0.00 0.00 83 1013.6
20260505164816 60 216 7.0 13.9 0.00 0.00 0.00 84 1013.6
20260505163756 60 234 7.0 13.0 0.00 0.00 0.00 81 1013.9
20260505162744 61 232 5.2 14.8 0.00 0.00 0.00 83 1013.9
20260505161722 60 223 7.8 14.8 0.00 0.00 0.00 84 1013.9
20260505160725 60 185 6.1 14.8 0.00 0.00 0.00 83 1014.1
20260505151549 60 203 7.0 13.9 0.00 0.00 0.00 83 1014.5
20260505150528 60 209 6.1 12.2 0.00 0.00 0.00 83 1014.6
20260505140149 59 233 6.1 11.3 0.00 0.00 0.00 85 1014.4
20260505124852 57 199 4.3 11.3 0.00 0.00 0.00 89 1013.9
20260505123909 57 217 5.2 10.4 0.00 0.00 0.00 89 1014.0
20260505121716 57 174 4.3 7.8 0.00 0.00 0.00 89 1014.1
20260505120735 57 214 4.3 7.8 0.00 0.00 0.00 89 1014.1
20260505115756 57 198 3.5 6.1 0.00 0.00 0.00 88 1013.9
20260505114738 58 226 1.7 7.0 0.00 0.00 0.00 89 1013.8
20260505111536 56 200 2.6 9.6 0.00 0.00 0.00 91 1013.9
20260505110545 56 248 3.5 9.6 0.00 0.00 0.00 91 1014.1